Home > Weather > Ireland > Galway > Past weeks

Flag for Ireland Weather past 2 weeks in Galway, Ireland

54 °F

Partly cloudy.

Feels Like: 49 °F
Forecast: 44 / 54 °F
Wind: 15 mph from Southwest

Location: Shannon Airport

Current Time: Dec 2, 2015 at 7:23:36 AM

Latest Report: Dec 2, 2015 at 7:00 AM

Visibility: N/A

Pressure: 29.80 "Hg

Humidity: 88%

Dew point: 50 °F

Location of GalwayLocation

Historic Weather in Galway — Graph


Galway temperature yesterday

Maximum temperature yesterday: 59 °F (at 1:30 PM)
Minimum temperature yesterday: 54 °F (at 12:00 AM)
Average temperature yesterday: 56 °F

Past Weeks' High & Low Weather Summary

High59 °F (Dec 1, 1:30 PM)100% (Nov 17, 6:00 AM)30.27 "Hg (Nov 17, 6:00 AM)
Low34 °F (Nov 23, 12:00 AM)57% (Nov 27, 6:00 PM)29.21 "Hg (Nov 17, 2:00 PM)
Average48 °F85%29.92 "Hg
* Reported Nov 17 6:00 AM — Dec 2 6:30 AM, Galway, Weather by CustomWeather, © 2015

Note: Actual official high and low records may vary slightly from our data, if they occured in-between our weather recording intervals... More about our weather records


Galway weather history for previous 24 hours

Time TempWeatherWind HumidityBarometerVisibility
6:30 AM
Wed, Dec 2
54 °FPartly cloudy.15 mph94%29.80 "HgN/A
6:00 AM55 °FLight rain. Passing clouds.14 mph94%29.77 "HgN/A
5:30 AM55 °FLight rain. Passing clouds.14 mph94%29.77 "HgN/A
5:00 AM54 °FLight rain. Passing clouds.18 mph100%29.77 "HgN/A
3:30 AM55 °FLight rain. Partly cloudy.20 mph88%29.74 "HgN/A
3:00 AM55 °FLight rain. Passing clouds.22 mph82%29.74 "HgN/A
2:30 AM55 °FPassing clouds.23 mph82%29.74 "HgN/A
2:00 AM55 °FPartly cloudy.24 mph77%29.74 "HgN/A
1:30 AM55 °FPassing clouds.25 mph72%29.74 "HgN/A
1:00 AM55 °FPassing clouds.23 mph72%29.77 "HgN/A
12:30 AM55 °FPassing clouds.22 mph72%29.80 "HgN/A
12:00 AM55 °FPassing clouds.22 mph72%29.83 "HgN/A
11:30 PM
Tue, Dec 1
55 °FPartly cloudy.17 mph72%29.83 "HgN/A
11:00 PM55 °FPassing clouds.18 mph72%29.83 "HgN/A
10:30 PM55 °FPassing clouds.23 mph72%29.86 "HgN/A
10:00 PM55 °FPassing clouds.21 mph72%29.86 "HgN/A
9:30 PM55 °FPartly cloudy.23 mph72%29.86 "HgN/A
9:00 PM55 °FPassing clouds.22 mph72%29.86 "HgN/A
8:30 PM55 °FPassing clouds.18 mph72%29.86 "HgN/A
8:00 PM55 °FPartly cloudy.13 mph72%29.89 "HgN/A
7:30 PM55 °FPassing clouds.22 mph72%29.86 "HgN/A
7:00 PM55 °FPassing clouds.22 mph72%29.89 "HgN/A
6:30 PM55 °FPassing clouds.25 mph72%29.89 "HgN/A
6:00 PM55 °FPassing clouds.22 mph72%29.89 "HgN/A
5:30 PM55 °FPassing clouds.21 mph77%29.89 "HgN/A
5:00 PM55 °FPassing clouds.22 mph77%29.92 "HgN/A
4:30 PM55 °FPassing clouds.21 mph77%29.92 "HgN/A
4:00 PM57 °FPartly sunny.21 mph72%29.92 "HgN/A
3:30 PM57 °FPartly sunny.18 mph67%29.92 "HgN/A
3:00 PM57 °FPartly sunny.17 mph67%29.92 "HgN/A
2:30 PM59 °FPartly sunny.18 mph63%29.95 "HgN/A
2:00 PM59 °FPartly sunny.18 mph68%29.95 "HgN/A
1:30 PM59 °FPartly sunny.16 mph72%29.95 "HgN/A
1:00 PM57 °FPartly sunny.16 mph77%29.95 "HgN/A
12:30 PM57 °FPartly sunny.20 mph77%29.95 "HgN/A
12:00 PM57 °FBroken clouds.18 mph77%29.95 "HgN/A
11:30 AM57 °FPartly sunny.17 mph77%29.98 "HgN/A
11:00 AM57 °FPartly sunny.18 mph77%29.98 "HgN/A
10:30 AM55 °FBroken clouds.18 mph88%29.98 "HgN/A
10:00 AM57 °FLight rain. Broken clouds.18 mph82%29.95 "HgN/A
9:30 AM57 °FLight rain. Partly sunny.24 mph77%29.95 "HgN/A
9:00 AM55 °FPartly sunny.22 mph88%29.95 "HgN/A
8:00 AM55 °FPassing clouds.25 mph88%29.95 "HgN/A
7:30 AM55 °FPartly cloudy.21 mph88%29.95 "HgN/A
7:00 AM55 °FPassing clouds.20 mph88%29.95 "HgN/A
Weather by CustomWeather, © 2015

See weather overviewHow to use our weather pages